Sparta, WI

1:25 AM CST on December 14, 2017 (GMT -0600)
Sparta-Fort McCoy

Weather History for KCMY - October, 2014

Change the Weather History Date:

Tuesday, October 28, 2014

  Actual Average Record
Temperature  
Mean Temperature 50 °F -  
Max Temperature 55 °F 55 °F 82 °F (2011)
Min Temperature 41 °F 32 °F 11 °F (1976)
Degree Days  
Heating Degree Days 16    
Moisture  
Dew Point 37 °F    
Average Humidity 71    
Maximum Humidity 85    
Minimum Humidity 54    
Precipitation  
Precipitation 0.01 in - - ()
Sea Level Pressure  
Sea Level Pressure 29.81 in    
Wind  
Wind Speed 10 mph (West)    
Max Wind Speed 17 mph    
Max Gust Speed 25 mph    
Visibility 10 miles    
Events      
Averages and records for this station are not official NWS values.
T = Trace of Precipitation, MM = Missing Value Source: NWS Daily Summary

Daily Weather History Graph

Daily Weather History Graph

Search for Another Location

Airport or City:

Trip Planner

Search our weather history database for the weather conditions in past years. The results will help you decide how hot, cold, wet, or windy it might be!

Date:

Astronomy

Oct. 28, 2014 Rise Set
Actual Time 7:34 AM CDT 5:58 PM CDT
Civil Twilight 7:04 AM CDT 6:28 PM CDT
Nautical Twilight 6:30 AM CDT 7:02 PM CDT
Astronomical Twilight 5:56 AM CDT 7:35 PM CDT
Moon 12:07 PM CDT (10/28) 10:01 PM CDT (10/28)
Length of Visible Light 11h 24m
Length of Day
10h 24m
Waxing Crescent, 24% of the Moon is Illuminated
Oct 28
Waxing Crescent
Oct 30
First Quarter
Nov 6
Full
Nov 14
Last Quarter
Nov 22
New

Hourly Weather History & Observations

Time (CDT) Temp. Windchill Dew Point Humidity Pressure Visibility Wind Dir Wind Speed Gust Speed Precip Events Conditions
12:15 AM 58.1 °F - 41.5 °F 54% 29.64 in 10.0 mi West 8.1 mph - N/A   Mostly Cloudy
12:35 AM 57.2 °F - 43.7 °F 61% 29.65 in 10.0 mi West 13.8 mph 25.3 mph N/A   Overcast
12:55 AM 55.4 °F - 44.4 °F 67% 29.65 in 10.0 mi West 13.8 mph 20.7 mph N/A   Mostly Cloudy
1:15 AM 53.6 °F - 44.4 °F 71% 29.67 in 10.0 mi West 10.4 mph 17.3 mph N/A   Scattered Clouds
1:35 AM 52.3 °F - 43.9 °F 73% 29.68 in 10.0 mi West 12.7 mph 16.1 mph N/A   Scattered Clouds
1:55 AM 51.4 °F - 43.3 °F 74% 29.69 in 10.0 mi West 11.5 mph 16.1 mph N/A   Clear
2:15 AM 51.3 °F - 42.3 °F 71% 29.69 in 10.0 mi West 11.5 mph 17.3 mph N/A   Mostly Cloudy
2:35 AM 50.5 °F - 41.5 °F 71% 29.71 in 10.0 mi West 10.4 mph 16.1 mph N/A   Mostly Cloudy
2:55 AM 49.5 °F - 40.6 °F 72% 29.72 in 10.0 mi West 9.2 mph - N/A   Clear
3:15 AM 48.7 °F - 40.1 °F 72% 29.71 in 10.0 mi West 8.1 mph - N/A   Clear
3:35 AM 48.0 °F - 39.6 °F 73% 29.71 in 10.0 mi WSW 4.6 mph - N/A   Clear
3:55 AM 46.6 °F - 39.7 °F 77% 29.71 in 10.0 mi West 8.1 mph - N/A   Clear
4:15 AM 46.4 °F 42.9 °F 39.6 °F 77% 29.72 in 10.0 mi WSW 6.9 mph - N/A   Clear
4:35 AM 45.5 °F 41.3 °F 39.6 °F 80% 29.72 in 10.0 mi WSW 8.1 mph - N/A   Clear
4:55 AM 45.0 °F 41.8 °F 39.6 °F 81% 29.73 in 10.0 mi West 5.8 mph - N/A   Clear
5:15 AM 44.2 °F 41.0 °F 39.6 °F 84% 29.73 in 10.0 mi West 5.8 mph - N/A   Clear
5:35 AM 44.2 °F 41.8 °F 39.4 °F 83% 29.73 in 10.0 mi West 4.6 mph - N/A   Clear
5:55 AM 43.3 °F 40.7 °F 39.2 °F 85% 29.73 in 10.0 mi West 4.6 mph - N/A   Clear
6:15 AM 43.9 °F 39.9 °F 39.4 °F 84% 29.73 in 10.0 mi WSW 6.9 mph - N/A   Scattered Clouds
6:35 AM 44.1 °F 40.1 °F 39.4 °F 84% 29.73 in 10.0 mi WSW 6.9 mph - N/A   Mostly Cloudy
6:55 AM 44.2 °F 41.8 °F 39.2 °F 82% 29.74 in 10.0 mi West 4.6 mph - N/A   Overcast
7:15 AM 43.9 °F 39.9 °F 38.8 °F 82% 29.74 in 10.0 mi WSW 6.9 mph - N/A   Mostly Cloudy
7:35 AM 43.7 °F 38.1 °F 37.8 °F 80% 29.74 in 10.0 mi West 10.4 mph - N/A   Scattered Clouds
7:55 AM 43.5 °F 39.4 °F 37.0 °F 78% 29.75 in 10.0 mi WSW 6.9 mph - N/A   Scattered Clouds
8:15 AM 43.7 °F 39.1 °F 36.5 °F 76% 29.76 in 10.0 mi WSW 8.1 mph - N/A   Mostly Cloudy
8:35 AM 44.1 °F 40.1 °F 36.1 °F 74% 29.77 in 10.0 mi WSW 6.9 mph - N/A   Scattered Clouds
8:55 AM 44.6 °F 40.2 °F 35.4 °F 70% 29.76 in 10.0 mi WSW 8.1 mph - N/A   Clear
9:15 AM 45.5 °F 40.3 °F 34.9 °F 66% 29.77 in 10.0 mi West 10.4 mph 16.1 mph N/A   Scattered Clouds
9:35 AM 44.8 °F 40.4 °F 34.5 °F 67% 29.78 in 10.0 mi West 8.1 mph 20.7 mph N/A   Mostly Cloudy
9:55 AM 45.5 °F 40.3 °F 34.2 °F 65% 29.78 in 10.0 mi West 10.4 mph 18.4 mph N/A   Mostly Cloudy
10:15 AM 45.1 °F 40.8 °F 33.8 °F 65% 29.79 in 10.0 mi WSW 8.1 mph - N/A   Overcast
10:35 AM 45.5 °F 39.2 °F 33.8 °F 64% 29.79 in 10.0 mi West 13.8 mph 21.9 mph N/A   Overcast
10:55 AM 45.3 °F 38.4 °F 33.8 °F 64% 29.79 in 10.0 mi West 16.1 mph 25.3 mph N/A   Overcast
11:15 AM 46.6 °F - 33.8 °F 61% 29.79 in 10.0 mi West 12.7 mph 18.4 mph N/A   Overcast
11:35 AM 46.9 °F - 33.6 °F 60% 29.79 in 10.0 mi West 15.0 mph 23.0 mph N/A   Overcast
11:55 AM 46.9 °F - 33.8 °F 60% 29.80 in 10.0 mi West 12.7 mph 25.3 mph N/A   Overcast
12:15 PM 46.9 °F - 34.0 °F 61% 29.80 in 10.0 mi West 18.4 mph 24.2 mph N/A   Overcast
12:35 PM 47.1 °F - 34.5 °F 62% 29.81 in 10.0 mi West 17.3 mph 20.7 mph N/A   Overcast
12:55 PM 46.8 °F - 34.2 °F 62% 29.82 in 10.0 mi West 9.2 mph 21.9 mph N/A   Overcast
1:15 PM 47.3 °F - 33.8 °F 59% 29.82 in 10.0 mi West 16.1 mph 23.0 mph N/A   Overcast
1:35 PM 47.3 °F - 34.2 °F 60% 29.82 in 10.0 mi WSW 9.2 mph 19.6 mph N/A   Overcast
1:55 PM 47.3 °F - 34.2 °F 60% 29.83 in 10.0 mi West 11.5 mph 20.7 mph N/A   Overcast
2:15 PM 46.6 °F - 36.0 °F 67% 29.83 in 10.0 mi West 10.4 mph 24.2 mph N/A   Overcast
2:35 PM 47.3 °F - 36.9 °F 67% 29.83 in 10.0 mi West 6.9 mph - N/A   Overcast
2:55 PM 46.8 °F - 37.0 °F 69% 29.83 in 10.0 mi WSW 12.7 mph 18.4 mph N/A   Overcast
3:15 PM 45.5 °F 43.2 °F 38.7 °F 77% 29.84 in 10.0 mi West 4.6 mph 17.3 mph N/A   Overcast
3:35 PM 46.4 °F 41.9 °F 37.8 °F 72% 29.84 in 10.0 mi West 9.2 mph - N/A   Overcast
3:55 PM 45.5 °F 40.3 °F 38.8 °F 78% 29.85 in 10.0 mi West 10.4 mph 17.3 mph N/A   Light Drizzle
4:15 PM 45.9 °F 41.2 °F 39.2 °F 78% 29.86 in 10.0 mi West 9.2 mph - N/A   Overcast
4:35 PM 46.0 °F 41.0 °F 38.3 °F 74% 29.86 in 10.0 mi WSW 10.4 mph 18.4 mph N/A   Overcast
4:55 PM 46.9 °F - 37.9 °F 71% 29.86 in 10.0 mi West 10.4 mph 17.3 mph N/A   Overcast
5:15 PM 46.8 °F - 37.8 °F 71% 29.86 in 10.0 mi WSW 8.1 mph 16.1 mph N/A   Overcast
5:35 PM 46.6 °F - 37.6 °F 71% 29.87 in 10.0 mi WSW 10.4 mph - N/A   Overcast
5:55 PM 45.0 °F 41.2 °F 39.4 °F 81% 29.87 in 7.0 mi West 6.9 mph - 0.01 in   Drizzle
6:15 PM 44.6 °F 38.1 °F 39.6 °F 82% 29.88 in 10.0 mi West 13.8 mph 18.4 mph N/A   Overcast
6:35 PM 45.1 °F 38.8 °F 37.4 °F 74% 29.89 in 10.0 mi West 13.8 mph 18.4 mph N/A   Overcast
6:55 PM 45.0 °F 38.9 °F 37.4 °F 75% 29.90 in 10.0 mi West 12.7 mph 18.4 mph N/A   Overcast
7:15 PM 44.6 °F 39.2 °F 36.9 °F 74% 29.90 in 10.0 mi West 10.4 mph 20.7 mph N/A   Overcast
7:35 PM 44.8 °F 39.0 °F 35.1 °F 69% 29.91 in 10.0 mi West 11.5 mph 25.3 mph N/A   Overcast
7:55 PM 44.6 °F 38.1 °F 34.0 °F 66% 29.91 in 10.0 mi West 13.8 mph 21.9 mph N/A   Overcast
8:15 PM 44.2 °F 38.0 °F 33.1 °F 65% 29.92 in 10.0 mi West 12.7 mph 23.0 mph N/A   Overcast
8:35 PM 44.1 °F 38.6 °F 32.5 °F 64% 29.92 in 10.0 mi West 10.4 mph 18.4 mph N/A   Overcast
8:55 PM 44.1 °F 37.1 °F 32.0 °F 63% 29.92 in 10.0 mi West 15.0 mph 20.7 mph N/A   Overcast
9:15 PM 43.7 °F 37.7 °F 32.0 °F 63% 29.92 in 10.0 mi West 11.5 mph 20.7 mph N/A   Overcast
9:35 PM 43.3 °F 36.5 °F 32.0 °F 64% 29.92 in 10.0 mi West 13.8 mph 19.6 mph N/A   Overcast
9:55 PM 43.0 °F 36.4 °F 31.8 °F 65% 29.93 in 10.0 mi West 12.7 mph 21.9 mph N/A   Overcast
10:15 PM 42.8 °F 35.8 °F 32.0 °F 66% 29.93 in 10.0 mi West 13.8 mph 20.7 mph N/A   Overcast
10:35 PM 42.8 °F 36.2 °F 32.0 °F 66% 29.93 in 10.0 mi West 12.7 mph 20.7 mph N/A   Overcast
10:55 PM 42.3 °F 35.1 °F 32.0 °F 67% 29.93 in 10.0 mi West 13.8 mph 18.4 mph N/A   Overcast
11:15 PM 42.3 °F 35.9 °F 32.0 °F 67% 29.93 in 10.0 mi West 11.5 mph 18.4 mph N/A   Overcast
11:35 PM 41.9 °F 36.9 °F 32.0 °F 68% 29.93 in 10.0 mi West 8.1 mph 18.4 mph N/A   Overcast
11:55 PM 41.9 °F 35.4 °F 32.0 °F 68% 29.94 in 10.0 mi West 11.5 mph 16.1 mph N/A   Overcast